Orbital elements of COSMOS 2304
| Launched | 25 December 1994 |
| Flight ended | – |
| Launch site | Plesetsk Missile and Space Complex, Russia |
| Owner | Commonwealth of Independent States (former USSR) |
| NORAD ID | 23446 |
| Date fetched |
Epoch osculation |
Inc. [°] |
Ecc. | RA asc node [hr] |
Arg Peri. [°] |
Mean anom [°] |
Mean motion [rev/day] |
Abs. mag |
| Date fetched |
Epoch osculation |
Inc. [°] |
Ecc. | RA asc node [hr] |
Arg Peri. [°] |
Mean anom [°] |
Mean motion [rev/day] |
Abs. mag |
| 2026 May 05 17:57 | 2026 May 05 09:15:22 | 82.5731 | 0.00032 | 23.1704 | 276.2374 | 256.9709 | 12.62204 | 6.743 |
| 2026 May 04 17:57 | 2026 Apr 30 14:21:52 | 82.5740 | 0.00032 | 23.3741 | 290.6642 | 256.9709 | 12.62204 | 6.743 |
| 2026 May 03 17:57 | 2026 Apr 30 14:21:52 | 82.5740 | 0.00032 | 23.3741 | 290.6642 | 256.9709 | 12.62204 | 6.743 |
| 2026 May 02 17:57 | 2026 Apr 30 14:21:52 | 82.5740 | 0.00032 | 23.3741 | 290.6642 | 256.9709 | 12.62204 | 6.743 |
| 2026 May 01 17:56 | 2026 Apr 30 14:21:52 | 82.5740 | 0.00032 | 23.3741 | 290.6642 | 256.9709 | 12.62204 | 6.743 |
| 2026 Apr 30 17:56 | 2026 Apr 30 14:21:52 | 82.5740 | 0.00032 | 23.3741 | 290.6642 | 256.9709 | 12.62204 | 6.743 |
| 2026 Apr 29 17:57 | 2026 Apr 24 04:45:55 | 82.5749 | 0.00034 | 23.6466 | 309.2295 | 256.9709 | 12.62204 | 6.743 |
| 2026 Apr 28 17:56 | 2026 Apr 24 04:45:55 | 82.5749 | 0.00034 | 23.6466 | 309.2295 | 256.9709 | 12.62204 | 6.743 |
| 2026 Apr 27 17:58 | 2026 Apr 24 04:45:55 | 82.5749 | 0.00034 | 23.6466 | 309.2295 | 256.9709 | 12.62204 | 6.743 |
| 2026 Apr 26 17:58 | 2026 Apr 24 04:45:55 | 82.5749 | 0.00034 | 23.6466 | 309.2295 | 256.9709 | 12.62204 | 6.743 |
| 2026 Apr 25 17:58 | 2026 Apr 24 04:45:55 | 82.5749 | 0.00034 | 23.6466 | 309.2295 | 256.9709 | 12.62204 | 6.743 |
| 2026 Apr 24 17:59 | 2026 Apr 24 04:45:55 | 82.5749 | 0.00034 | 23.6466 | 309.2295 | 256.9709 | 12.62204 | 6.743 |
| 2026 Apr 23 17:57 | 2026 Apr 19 10:52:36 | 82.5756 | 0.00036 | 23.8485 | 322.1786 | 256.9709 | 12.62204 | 6.743 |
| 2026 Apr 22 17:57 | 2026 Apr 19 10:52:36 | 82.5756 | 0.00036 | 23.8485 | 322.1786 | 256.9709 | 12.62204 | 6.743 |
| 2026 Apr 21 17:57 | 2026 Apr 19 10:52:36 | 82.5756 | 0.00036 | 23.8485 | 322.1786 | 256.9709 | 12.62204 | 6.743 |
| 2026 Apr 20 17:57 | 2026 Apr 19 10:52:36 | 82.5756 | 0.00036 | 23.8485 | 322.1786 | 256.9709 | 12.62204 | 6.743 |
| 2026 Apr 19 17:58 | 2026 Apr 19 10:52:36 | 82.5756 | 0.00036 | 23.8485 | 322.1786 | 256.9709 | 12.62204 | 6.743 |
| 2026 Apr 18 17:56 | 2026 Apr 13 06:13:57 | 82.5763 | 0.00038 | 0.1121 | 337.4382 | 256.9709 | 12.62204 | 6.743 |
| 2026 Apr 16 17:57 | 2026 Apr 13 06:13:57 | 82.5763 | 0.00038 | 0.1121 | 337.4382 | 256.9709 | 12.62204 | 6.743 |
| 2026 Apr 14 17:57 | 2026 Apr 13 06:13:57 | 82.5763 | 0.00038 | 0.1121 | 337.4382 | 256.9709 | 12.62204 | 6.743 |
| 2026 Apr 13 17:57 | 2026 Apr 13 06:13:57 | 82.5763 | 0.00038 | 0.1121 | 337.4382 | 256.9709 | 12.62204 | 6.743 |
| 2026 Apr 12 17:57 | 2026 Apr 08 06:21:21 | 82.5766 | 0.00041 | 0.3246 | 349.2607 | 256.9709 | 12.62204 | 6.743 |
| 2026 Apr 11 17:57 | 2026 Apr 08 06:21:21 | 82.5766 | 0.00041 | 0.3246 | 349.2607 | 256.9709 | 12.62204 | 6.743 |
| 2026 Apr 10 17:58 | 2026 Apr 08 06:21:21 | 82.5766 | 0.00041 | 0.3246 | 349.2607 | 256.9709 | 12.62204 | 6.743 |
| 2026 Apr 09 18:01 | 2026 Apr 08 06:21:21 | 82.5766 | 0.00041 | 0.3246 | 349.2607 | 256.9709 | 12.62204 | 6.743 |
| 2026 Apr 08 17:57 | 2026 Apr 08 06:21:21 | 82.5766 | 0.00041 | 0.3246 | 349.2607 | 256.9709 | 12.62204 | 6.743 |